DELTA 1 DEB, 27576

Orbit data source: Space-Track

DELTA 1 DEB, 27576 is space debris in SSO originally from a launch on Thu, 12 Jun 1975 UTC launched from the Air Force Western Test Range (AFWTR). Debris objects in space refer to the collection of defunct objects orbiting the Earth. Examples of debris include non-operational satellites, rocket bodies, and fragments generated from explosions, collisions, or faulty payload assembly.

Loading next visibility...
Identifier
27576, 1975-052LD
Orbit
SSO
Country
Flag of USUS
Related business
Manufacturer
Unknown
Mission
Spacecraft
Bus & Motor
Unknown
Mass
Unknown
Launch date (UTC)
1975-06-12 (50 years ago)
Launch vehicle
Unknown
Launch site
Air Force Western Test Range (AFWTR)
Object type
Payload
Rocket body
Debris
Shape & HBR
Unknown shape, 0.1 m
Radar Cross Section
Small (<0.1 m²)

Expand to show TLE details & history
Last TLE update: 21 hours ago

TLE from 21 hours ago
0 DELTA 1 DEB
1 27576U 75052LD  25287.82825650  .00000037  00000-0  90167-4 0  9993
2 27576  99.3093 137.1106 0115768 257.6635 116.9329 13.68103897726870
Epoch: 2025-10-14T19:52Z
TLE epoch observation values (Epoch: 2025-10-14T19:52:41.361Z)
Latitude
15.53755°
Longitude
172.72844°
Altitude
1,048.039 km
Speed
7.309 km/s
True Right ascension
08h 58m 02s
True Declination
15° 27' 09"
Sunlit
Object was in daylight at epoch
Visualization orbit readout
Latitude
Unknown
Longitude
Unknown
Altitude
Unknown
Speed
Unknown
Apparent Right ascension
Unknown
Apparent Declination
Unknown
Sunlit
N/A
Visualization observer readout
Local Sidereal Time
11:52:05
Azimuth
Unknown
Elevation
Unknown
Doppler factor
Unknown
Orbital elements
Apogee altitude
1,089.1 km
Perigee altitude
918.186 km
Semi-major axis
7,381.78 km
Eccentricity
0.01158
Inclination
99.3093°
RAAN
137.1106°
Arg. of periapsis
257.6635°
True anomaly
118.10783°
Mean anomaly
116.9329°
Eccentric anomaly
117.52114°
Mean motion
3.42217 °/min
Orbital period
105.2 mins
BSTAR
0.000090167
Loading maneuver chart data...
Computing Atmospheric mass density...
Loading historical data...
Loading historical data...
Loading historical data...
Loading historical data...
Loading historical data...
Loading historical data...
Loading historical data...

Documentation

Showing up to 5 results
|